Location: Home
(42.5358°N, 72.7383°W)
Time: 16:37:13
(UTC-05:00)

N. Korean satellite - Pass Details

Date: 24 October 2021
Orbit: 446 x 495 km, 97.3° (Epoch: 07 December)

Event Time Altitude Azimuth Distance (km) Brightness Sun altitude
Rises 18:26:36 0° 214° (SW) 2,520 10.9 -6.6°
Reaches altitude 10° 18:29:52 10° 248° (WSW) 1,662 10.9 -7.2°
Maximum altitude 18:31:12 12° 270° (W) 1,564 10.7 -7.4°
Drops below altitude 10° 18:32:34 10° 292° (WNW) 1,678 10.3 -7.7°
Sets 18:35:54 0° 326° (NW) 2,577 10.6 -8.3°
